TimeEST,TemperatureF,Dew PointF,Humidity,Sea Level PressureIn,VisibilityMPH,Wind Direction,Wind SpeedMPH,Gust SpeedMPH,PrecipitationIn,Events,Conditions,WindDirDegrees,DateUTC
12:53 AM,19.0,7.0,59,30.00,10.0,WNW,9.2,-,N/A,,Partly Cloudy,300,2013-01-21 05:53:00
1:53 AM,19.0,6.1,57,30.01,10.0,NW,8.1,-,N/A,,Clear,310,2013-01-21 06:53:00
2:53 AM,17.1,6.1,62,30.02,10.0,West,6.9,-,N/A,,Clear,280,2013-01-21 07:53:00
4:53 AM,16.0,5.0,62,30.02,10.0,WNW,9.2,-,N/A,,Clear,290,2013-01-21 09:53:00
5:53 AM,15.1,6.1,68,30.03,10.0,West,4.6,-,N/A,,Mostly Cloudy,270,2013-01-21 10:53:00
7:53 AM,17.1,6.1,62,30.03,10.0,West,4.6,-,N/A,,Overcast,260,2013-01-21 12:53:00
8:53 AM,18.0,7.0,62,30.03,10.0,West,6.9,-,N/A,,Overcast,260,2013-01-21 13:53:00
9:53 AM,19.0,6.1,57,30.03,10.0,SW,6.9,-,N/A,,Overcast,230,2013-01-21 14:53:00
10:53 AM,19.9,7.0,57,30.01,10.0,SW,4.6,-,N/A,,Overcast,230,2013-01-21 15:53:00
11:53 AM,21.0,8.1,57,29.96,10.0,WSW,6.9,-,N/A,,Overcast,250,2013-01-21 16:53:00
12:53 PM,21.9,10.9,63,29.92,8.0,SSW,8.1,-,0.00,Snow,Light Snow,210,2013-01-21 17:53:00
1:36 PM,21.2,12.2,68,29.81,4.0,SSW,9.2,-,0.00,Snow,Light Snow,200,2013-01-21 18:36:00
1:48 PM,21.2,14.0,74,29.81,2.0,SSW,11.5,18.4,0.00,Snow,Light Snow,200,2013-01-21 18:48:00
1:53 PM,21.0,12.9,71,29.90,2.5,South,10.4,-,0.00,Snow,Light Snow,190,2013-01-21 18:53:00
2:01 PM,21.2,14.0,74,29.81,3.0,SSW,10.4,-,0.00,Snow,Light Snow,200,2013-01-21 19:01:00
2:09 PM,21.2,14.0,74,29.80,2.5,SSW,11.5,-,0.00,Snow,Light Snow,210,2013-01-21 19:09:00
2:22 PM,21.2,14.0,74,29.80,1.5,SSW,9.2,-,0.00,Snow,Light Snow,200,2013-01-21 19:22:00
2:33 PM,19.4,14.0,80,29.80,2.0,SSW,9.2,-,0.00,Snow,Light Snow,210,2013-01-21 19:33:00
2:43 PM,19.4,14.0,80,29.80,1.8,South,9.2,-,0.00,Snow,Light Snow,190,2013-01-21 19:43:00
2:53 PM,21.0,14.0,74,29.89,2.5,SW,9.2,-,0.00,Snow,Light Snow,220,2013-01-21 19:53:00
3:11 PM,19.4,15.8,86,29.78,1.5,South,5.8,-,0.00,Snow,Light Snow,180,2013-01-21 20:11:00
3:33 PM,19.4,15.8,86,29.77,2.0,South,5.8,-,0.00,Snow,Light Snow,190,2013-01-21 20:33:00
3:53 PM,19.9,15.1,81,29.86,4.0,SSW,6.9,-,0.00,Snow,Light Snow,200,2013-01-21 20:53:00
4:35 PM,21.2,15.8,80,29.75,1.8,SSW,6.9,-,0.00,Snow,Light Snow,200,2013-01-21 21:35:00
4:42 PM,19.4,15.8,86,29.76,1.2,SSW,5.8,-,0.00,Snow,Light Snow,200,2013-01-21 21:42:00
4:53 PM,19.9,16.0,85,29.85,1.2,SW,3.5,-,0.00,Snow,Light Snow,220,2013-01-21 21:53:00
4:58 PM,19.4,15.8,86,29.76,2.0,SW,5.8,-,0.00,Snow,Light Snow,220,2013-01-21 21:58:00
5:07 PM,19.4,15.8,86,29.76,5.0,SSW,3.5,-,0.00,,Haze,210,2013-01-21 22:07:00
5:21 PM,19.4,15.8,86,29.77,2.0,WSW,4.6,-,0.00,Snow,Light Snow,240,2013-01-21 22:21:00
5:36 PM,19.4,15.8,86,29.77,2.5,WSW,4.6,-,0.00,Snow,Light Snow,250,2013-01-21 22:36:00
5:49 PM,19.4,15.8,86,29.77,1.8,WSW,4.6,-,0.00,Snow,Light Snow,250,2013-01-21 22:49:00
5:53 PM,19.9,16.0,85,29.87,1.5,West,3.5,-,0.00,Snow,Light Snow,260,2013-01-21 22:53:00
6:20 PM,19.4,15.8,86,29.78,2.0,West,6.9,-,0.00,Snow,Light Snow,270,2013-01-21 23:20:00
6:35 PM,19.4,15.8,86,29.78,4.0,West,6.9,-,0.00,Snow,Light Snow,270,2013-01-21 23:35:00
6:53 PM,19.9,16.0,85,29.88,3.0,West,8.1,-,0.00,Snow,Light Snow,260,2013-01-21 23:53:00
7:00 PM,19.4,15.8,86,29.78,2.0,West,8.1,-,0.00,Snow,Light Snow,270,2013-01-22 00:00:00
7:53 PM,19.9,16.0,85,29.86,3.0,West,9.2,-,0.00,Snow,Light Snow,270,2013-01-22 00:53:00
8:16 PM,19.4,15.8,86,29.76,1.8,WNW,12.7,-,0.00,Snow,Light Snow,290,2013-01-22 01:16:00
8:38 PM,19.4,15.8,86,29.76,2.5,WNW,16.1,25.3,0.00,Snow,Light Snow,290,2013-01-22 01:38:00
8:44 PM,19.4,12.2,74,29.75,6.0,WNW,17.3,26.5,0.00,,Haze,300,2013-01-22 01:44:00
8:53 PM,19.0,10.9,71,29.84,9.0,WNW,11.5,21.9,0.00,,Scattered Clouds,300,2013-01-22 01:53:00
9:53 PM,17.1,9.0,71,29.83,10.0,WNW,15.0,26.5,N/A,,Clear,290,2013-01-22 02:53:00
10:53 PM,16.0,6.1,65,29.82,10.0,WNW,15.0,23.0,N/A,,Clear,290,2013-01-22 03:53:00
11:53 PM,14.0,6.1,71,29.82,10.0,WNW,9.2,-,N/A,,Clear,290,2013-01-22 04:53:00